EXPRESS-AM5

Last updated on Jan. 19, 2021, 6:23 a.m. UTC

1 39487U 13077A   21018.78532654 -.00000278  00000-0  00000+0 0  9998
2 39487   0.0182 243.4868 0001503 136.6257 161.0341  1.00275057 26548
UTC
Height (km)
Latitude
Longitude
Inclination
Orbital Period
UTC large
Height (km)
Speed (km/s)
/
Latitude / Longitude
Inclination (degrees)
Orbital Period (minutes)
Azimuth
Elevation
Range (km)
Doppler Factor
iOS Compass Heading
iOS Angle

Next 30 passes for location: Hong Kong

Rise time Rise Azimuth (degrees) Set time Set Azimuth (degrees) Duration Max altitude (degrees)

No matching passes for this satellites